Temperature
23 24 24 24 24 24 24 24 24 23 23 23 23 23 23 22 21 21 21 21 20 20 19 18 18 18 18 17 17 17 17 17 16 16 16 16 16 16 16 16 15 15 15 15
24 24 24 24 24 24 24 24 24 23 23 23 23 23 23 23 22 21 21 21 20 20 19 18 18 17 17 17 17 17 17 17 16 16 16 16 16 15 15 15 15 15 15 15
24 24 24 23 23 24 24 24 24 23 23 23 23 23 23 23 22 21 20 20 20 19 19 18 18 17 17 17 17 17 17 16 16 16 16 15 15 15 15 15 15 15 15 15
24 24 23 24 24 24 23 24 23 23 23 23 23 23 23 23 23 22 21 20 20 19 19 18 17 17 17 17 17 17 16 16 16 16 16 15 15 15 15 15 15 15 15 14
23 23 23 23 23 23 23 23 23 23 23 23 23 23 24 23 23 23 22 20 20 19 18 18 17 17 17 16 16 16 16 16 16 16 15 15 15 15 15 15 15 14 14 14
23 23 23 23 23 23 23 23 23 23 23 23 23 23 23 23 23 23 22 21 19 19 18 17 17 17 16 16 16 16 16 16 16 15 15 15 15 15 14 14 14 14 14 14
23 23 23 23 23 23 23 23 23 23 23 23 23 23 23 23 23 22 21 20 19 19 18 17 17 16 16 16 16 16 16 15 15 15 15 15 15 15 14 14 14 14 14 14
23 23 23 23 23 23 23 24 23 22 22 23 23 23 23 22 21 20 20 20 19 18 18 17 16 16 16 16 16 15 15 15 15 15 15 15 14 14 14 14 14 14 14 13
23 23 23 22 22 23 23 23 23 23 23 22 23 23 23 22 21 20 20 19 19 18 17 17 16 16 16 16 16 15 15 15 15 15 14 14 14 14 14 14 14 14 13 13
23 22 22 22 22 22 23 23 23 23 22 22 22 23 23 22 22 21 20 19 19 18 17 16 16 16 15 15 15 15 15 14 14 14 14 14 14 14 14 14 13 13 13 13
22 22 22 22 22 23 22 22 22 22 22 22 22 22 22 22 22 21 21 20 19 18 17 16 16 15 15 15 15 15 14 14 14 14 14 14 14 13 13 13 13 13 13 13
21 22 22 22 22 21 22 22 22 22 22 22 22 22 22 22 21 20 20 19 18 17 17 16 15 15 15 14 14 14 14 14 14 13 13 13 13 13 13 13 13 13 13 13
20 21 21 22 21 21 21 21 22 22 22 22 21 22 22 21 21 20 19 19 18 17 16 15 15 15 14 14 14 14 14 14 13 13 13 13 13 13 13 13 13 13 13 13
19 21 21 21 22 21 21 21 21 21 21 21 22 22 21 21 20 20 19 18 17 16 15 15 15 14 14 14 14 13 13 13 13 13 13 13 13 13 13 13 13 13 12 12
20 20 21 21 21 20 20 20 20 21 21 21 22 21 21 21 20 19 18 17 16 16 15 15 14 14 14 13 13 13 13 13 13 13 13 13 13 13 12 12 12 12 12 12
19 20 20 20 20 20 19 20 20 20 20 20 21 21 21 20 19 18 18 17 16 15 15 14 14 14 13 13 13 13 12 12 12 12 12 12 12 12 12 12 12 12 12 12
19 19 19 20 20 19 19 20 20 20 20 20 20 20 20 19 19 18 17 16 16 15 14 14 14 14 13 13 13 12 12 12 12 12 12 12 12 12 12 11 11 11 11 11
18 19 19 19 19 18 20 20 19 19 19 20 20 19 19 18 17 17 16 16 15 15 14 14 14 13 13 13 12 12 12 12 11 11 11 11 11 11 11 11 11 11 11 11
17 18 18 18 18 19 19 19 19 19 19 19 19 18 17 17 17 17 16 15 15 14 14 14 13 13 13 12 12 12 12 11 11 11 11 11 11 11 11 11 11 11 11 11
16 17 18 17 17 18 19 19 18 19 19 18 18 17 17 16 18 18 15 14 14 14 13 13 13 13 12 12 12 12 11 11 11 11 11 11 11 11 11 11 10 10 10 10
16 16 16 17 17 18 19 17 17 18 19 17 17 17 16 16 17 15 14 14 14 13 13 13 13 12 12 12 12 11 11 11 11 11 11 10 10 10 10 10 10 10 10 10
17 16 16 17 17 17 17 16 17 18 17 16 16 16 15 15 14 14 13 13 13 13 13 12 12 12 12 11 11 11 11 11 11 10 10 10 10 10 10 10 10 9 9 9
16 17 17 17 17 17 16 16 16 15 16 15 15 15 14 14 13 13 13 13 13 12 12 12 12 12 11 11 11 11 11 10 10 10 10 10 10 10 10 9 9 9 9 9
16 15 15 16 16 15 14 14 14 14 14 14 14 13 13 13 13 12 12 12 12 12 12 12 11 11 11 11 10 10 10 10 10 10 10 9 9 9 9 9 9 9 9 9
15 15 15 15 16 14 14 13 13 13 13 13 13 13 13 12 12 12 12 12 12 11 11 11 11 11 11 10 10 10 10 10 9 9 9 9 9 9 9 9 9 9 8 8
14 14 15 16 16 15 15 13 13 13 13 12 12 12 12 12 12 12 11 11 11 11 11 10 10 10 10 10 10 10 10 10 9 9 9 9 9 9 8 8 8 8 8 8
Wind_Speed
3 5 4 3 3 3 3 3 2 1 1 3 3 2 2 3 4 4 4 3 3 3 4 4 3 3 3 3 2 3 3 3 3 2 2 1 1 1 1 1 1 1 1 1
6 5 3 2 3 4 4 4 2 1 0 2 2 2 2 3 3 3 3 3 3 3 4 4 3 3 3 3 3 3 3 2 2 2 2 1 1 1 1 1 1 0 1 1
5 1 3 4 4 5 5 4 3 2 1 3 3 4 4 4 3 3 2 2 3 3 3 4 3 3 3 3 3 3 2 2 3 3 2 2 2 1 1 1 1 0 1 1
4 2 4 5 4 5 4 2 4 4 5 2 4 3 3 4 4 3 3 3 3 3 3 3 3 3 3 2 2 3 3 2 3 3 3 3 2 2 2 1 1 1 1 2
4 3 4 4 3 4 2 1 3 5 6 5 4 5 2 4 4 3 3 3 3 3 4 3 3 3 3 2 2 2 3 2 2 3 3 3 3 2 1 2 2 1 1 2
3 3 3 3 2 3 3 3 3 4 6 6 3 5 2 2 2 2 3 3 3 3 3 3 3 3 3 2 2 2 2 2 2 3 4 4 4 3 3 2 2 2 2 1
6 5 3 3 4 5 4 5 3 4 4 3 1 4 2 2 2 2 3 3 3 3 4 4 3 3 2 2 2 2 3 3 3 4 4 4 4 4 4 3 3 2 2 2
5 5 4 3 5 5 5 6 3 3 3 2 3 4 0 2 1 0 1 3 3 4 3 3 3 2 2 2 1 2 2 3 3 3 4 3 4 3 3 3 3 2 2 2
4 3 3 2 2 4 5 5 4 4 5 5 3 2 2 1 1 1 2 2 3 4 3 3 3 2 2 1 1 1 1 1 2 2 3 3 3 3 3 3 2 2 2 1
4 5 3 2 4 2 3 3 4 5 4 5 4 4 2 2 2 2 2 2 3 3 3 3 3 2 1 1 1 1 1 1 1 2 2 2 3 3 2 3 3 2 2 2
5 6 4 5 5 5 5 5 5 5 5 5 4 1 1 1 1 2 2 2 3 4 4 3 3 2 2 1 1 1 1 1 1 1 2 2 2 2 2 2 2 2 2 2
3 4 5 5 2 3 5 6 7 6 6 6 6 3 3 1 2 2 2 2 2 3 3 3 2 2 2 2 1 1 1 1 1 1 1 1 1 2 2 2 2 2 2 2
2 5 5 5 6 5 5 5 7 7 7 8 8 4 3 1 2 2 2 2 1 1 2 2 2 2 2 2 1 1 1 1 1 1 1 1 1 1 1 1 2 2 3 3
3 6 8 8 4 4 6 7 8 9 9 10 10 9 5 4 4 3 3 2 1 1 2 2 2 2 2 2 1 1 1 1 1 2 2 2 1 1 1 1 2 2 2 3
3 6 8 9 7 6 8 9 10 12 12 12 11 10 9 6 5 4 2 1 1 1 1 2 2 2 2 2 2 2 1 2 2 2 2 1 1 1 1 1 1 2 2 3
3 5 6 8 7 7 9 10 11 12 12 13 13 11 7 5 3 3 2 1 2 2 2 2 2 2 2 3 2 2 1 2 2 2 2 1 2 2 2 2 2 1 2 2
4 5 6 8 6 7 10 10 10 10 9 10 11 9 5 5 4 4 3 2 3 2 2 2 2 2 3 3 2 2 2 2 1 1 1 2 2 2 2 2 2 2 2 2
7 7 6 6 6 9 4 2 6 8 8 8 8 6 5 5 4 4 3 3 3 3 3 3 3 3 3 2 2 2 2 2 2 2 2 2 2 2 2 2 2 3 2 2
8 7 6 6 8 9 6 4 5 7 7 5 6 5 4 2 3 2 0 2 2 3 3 3 3 3 2 2 3 3 3 2 2 2 2 2 2 2 2 3 3 3 2 2
5 8 7 7 8 7 3 2 3 5 7 3 4 4 3 3 5 2 1 2 2 2 2 2 2 2 2 2 3 4 4 4 3 3 3 3 3 3 3 3 3 3 3 3
6 6 10 11 10 8 2 2 4 6 2 1 3 3 4 5 4 3 2 2 2 2 2 2 2 2 2 2 3 4 4 4 3 3 3 2 3 3 3 3 2 2 3 3
7 7 9 9 10 8 3 5 5 3 1 1 2 3 4 4 3 2 2 2 2 2 2 2 2 2 2 2 3 4 4 3 3 3 3 3 3 3 2 2 2 3 3 3
7 7 5 7 6 2 3 4 3 2 3 3 3 3 3 3 3 3 3 3 3 3 2 2 2 2 2 3 4 4 4 3 3 3 3 3 3 3 3 3 3 3 3 3
7 5 7 8 9 7 7 7 6 5 5 4 4 3 4 4 4 4 3 3 3 3 3 2 3 3 3 3 4 4 3 3 3 4 3 3 3 3 4 3 3 3 4 4
7 6 8 11 10 8 8 8 7 6 5 4 4 4 4 4 5 5 4 4 4 3 3 3 3 3 3 3 4 3 3 3 4 4 4 4 4 3 3 3 3 4 3 4
9 10 10 10 9 8 8 7 6 6 6 5 4 4 4 4 5 5 5 4 4 4 3 3 3 3 3 3 3 3 3 4 5 4 4 4 3 3 3 3 3 2 3 3
Wind_Direction
189 199 205 208 225 253 234 239 250 288 247 237 233 230 210 166 179 190 184 178 172 166 155 148 147 154 166 165 171 159 162 161 154 157 165 151 143 135 111 83 88 112 128 131
193 207 212 198 200 219 229 235 244 208 167 246 241 239 208 185 191 202 201 192 184 168 155 149 157 162 174 170 176 169 163 162 164 167 174 163 149 149 109 99 80 105 143 138
210 189 178 197 202 225 231 246 253 271 258 218 246 215 188 172 175 180 196 202 187 175 168 164 171 171 174 175 180 174 171 171 179 170 162 140 136 163 169 169 160 103 177 166
217 211 201 210 221 243 239 254 255 244 244 236 253 252 192 190 190 191 194 191 188 178 183 176 173 171 171 172 183 184 177 181 180 183 188 186 198 210 204 200 180 186 205 198
200 198 212 225 233 242 264 243 238 243 253 250 230 257 190 181 207 208 198 190 188 185 187 183 175 169 163 161 176 194 192 194 190 201 200 211 214 211 191 191 186 199 197 205
220 210 241 247 228 214 184 195 199 224 242 244 233 254 234 186 248 242 208 199 193 185 179 170 159 157 151 149 163 186 203 207 211 212 209 208 207 204 196 193 198 202 195 207
208 201 205 223 210 187 218 241 233 225 226 237 204 249 261 38 323 267 235 209 191 181 174 165 158 159 154 158 173 196 209 212 215 217 215 213 209 211 214 213 207 210 209 214
218 205 196 216 234 232 227 244 255 266 267 257 218 243 133 50 7 304 209 193 183 174 171 169 165 161 165 173 191 202 210 214 218 220 217 212 207 215 228 229 224 212 222 233
231 208 153 188 233 238 221 227 264 270 275 267 234 223 205 143 154 150 170 183 189 184 181 176 169 166 169 175 188 191 197 200 211 222 218 214 211 209 218 227 221 218 224 241
252 237 196 182 185 167 255 207 225 249 268 264 252 248 252 208 215 203 216 216 204 195 190 182 176 174 169 158 158 150 187 193 194 212 212 205 216 216 217 216 212 219 223 217
245 237 208 195 214 218 192 200 229 243 258 270 274 259 29 298 264 249 245 228 209 198 192 187 182 175 159 144 146 146 165 168 177 196 200 199 204 216 217 219 225 234 238 228
236 250 238 220 205 253 233 233 233 245 245 251 271 279 92 320 299 293 284 255 222 203 190 184 176 166 164 157 156 145 146 142 135 161 169 180 193 203 217 227 230 234 241 236
219 238 240 208 193 192 210 218 233 248 254 248 252 254 110 9 331 335 310 293 258 189 177 173 176 178 180 178 181 155 140 134 131 160 163 171 186 199 225 236 231 237 239 230
244 242 247 255 266 224 226 219 220 232 246 252 252 266 269 286 301 311 305 291 266 203 182 184 195 194 190 194 205 204 179 165 171 180 185 191 198 210 221 232 232 228 239 239
238 253 253 262 264 249 251 247 235 239 251 258 265 269 276 282 293 302 299 285 247 219 211 206 213 204 197 201 210 208 202 194 194 191 204 213 211 208 222 222 236 241 240 246
236 247 253 253 241 244 253 251 245 246 250 254 262 266 276 282 285 286 282 255 238 233 230 218 222 215 212 207 209 203 204 202 201 204 210 213 218 206 212 218 219 226 236 242
220 231 248 254 244 253 250 240 234 238 241 248 257 267 267 263 271 281 278 249 245 244 239 237 234 230 225 213 203 206 203 196 199 222 242 235 219 204 203 206 206 217 223 227
231 233 241 256 252 246 246 207 230 239 248 252 259 264 259 264 272 278 270 263 260 260 246 242 242 233 230 215 208 208 195 192 202 216 248 236 215 207 202 203 212 228 237 230
228 226 231 239 252 262 250 225 218 234 250 248 251 252 264 278 250 240 279 293 277 271 253 245 240 230 224 214 212 208 204 208 214 227 247 233 216 213 214 216 224 231 236 242
199 217 230 231 246 251 241 176 211 240 247 222 231 231 234 223 250 256 330 304 288 284 268 254 237 227 222 224 216 217 220 222 225 230 234 234 222 219 220 227 232 232 234 246
189 205 223 234 243 255 251 166 191 227 273 150 221 229 226 239 280 307 311 309 306 298 289 266 233 227 223 228 226 230 232 233 230 231 228 224 217 219 221 231 236 243 244 250
219 214 221 227 235 243 160 170 213 274 2 217 244 249 249 263 295 301 293 297 312 314 299 273 252 244 222 222 231 240 245 244 232 222 217 220 215 212 219 228 242 252 256 258
229 234 237 231 245 291 188 219 260 290 272 278 270 263 256 261 268 277 281 283 292 304 294 272 260 252 235 225 233 248 252 243 229 223 224 225 228 220 221 231 241 250 253 259
233 237 241 248 252 257 251 256 260 255 266 276 274 264 252 253 258 268 275 279 282 290 290 276 261 257 252 240 240 251 251 235 222 224 229 231 233 239 233 232 241 251 256 257
247 228 242 253 257 263 257 254 256 259 258 261 264 264 259 254 254 261 269 275 281 283 282 270 261 258 256 250 242 242 243 232 229 229 230 234 235 239 247 243 251 257 262 267
236 235 242 254 255 260 263 256 257 256 251 247 247 259 262 255 255 264 271 277 282 283 284 276 269 265 261 255 253 243 237 238 237 236 240 241 239 241 247 253 256 256 250 254
Height
1525 1524 1524 1524 1524 1525 1525 1527 1528 1528 1528 1529 1529 1529 1529 1531 1533 1533 1534 1535 1537 1538 1540 1541 1542 1543 1544 1544 1545 1546 1546 1547 1547 1547 1547 1548 1548 1548 1548 1548 1548 1548 1548 1548
1524 1524 1523 1524 1525 1525 1526 1527 1528 1528 1528 1528 1528 1528 1528 1530 1532 1533 1533 1534 1536 1537 1539 1540 1541 1542 1543 1543 1544 1545 1545 1546 1546 1546 1546 1547 1547 1547 1547 1547 1547 1547 1547 1547
1522 1523 1524 1525 1525 1526 1525 1526 1527 1529 1528 1527 1528 1528 1526 1528 1530 1532 1533 1533 1534 1536 1537 1539 1540 1541 1541 1542 1543 1544 1544 1545 1545 1545 1545 1546 1546 1546 1546 1546 1546 1546 1546 1546
1522 1523 1524 1524 1524 1524 1526 1524 1526 1527 1528 1528 1529 1530 1524 1524 1526 1529 1531 1532 1533 1535 1536 1538 1539 1539 1540 1541 1542 1542 1543 1543 1544 1544 1544 1544 1544 1545 1545 1545 1545 1545 1545 1545
1522 1523 1523 1524 1524 1524 1524 1525 1525 1525 1525 1526 1526 1527 1522 1521 1524 1525 1528 1530 1532 1534 1535 1536 1537 1538 1539 1539 1540 1541 1541 1542 1542 1542 1542 1543 1543 1543 1543 1543 1544 1544 1544 1544
1521 1523 1523 1523 1524 1525 1525 1526 1525 1524 1523 1530 1525 1527 1524 1520 1522 1523 1526 1529 1531 1532 1534 1535 1536 1536 1537 1537 1538 1539 1539 1540 1540 1540 1540 1541 1541 1541 1542 1542 1542 1542 1542 1542
1521 1521 1523 1524 1523 1524 1523 1525 1532 1533 1532 1529 1523 1525 1523 1519 1521 1523 1525 1527 1529 1531 1532 1533 1534 1535 1535 1536 1536 1536 1537 1537 1537 1538 1538 1539 1539 1539 1540 1540 1540 1540 1541 1541
1523 1524 1521 1521 1521 1522 1521 1522 1532 1539 1535 1526 1524 1524 1520 1521 1523 1525 1526 1527 1528 1530 1531 1532 1533 1533 1534 1534 1534 1534 1534 1535 1535 1536 1536 1536 1537 1537 1538 1538 1539 1539 1539 1539
1520 1522 1521 1522 1522 1521 1521 1522 1522 1525 1527 1529 1522 1520 1519 1520 1522 1524 1525 1526 1527 1528 1530 1530 1531 1532 1532 1532 1532 1532 1532 1533 1533 1533 1534 1534 1535 1535 1536 1536 1537 1537 1537 1537
1517 1522 1520 1522 1522 1523 1521 1521 1524 1526 1534 1532 1526 1522 1519 1519 1519 1521 1523 1524 1526 1527 1528 1529 1529 1530 1531 1531 1531 1531 1531 1531 1531 1531 1532 1532 1532 1533 1533 1534 1535 1535 1535 1535
1518 1520 1521 1520 1520 1520 1522 1523 1522 1523 1525 1530 1531 1524 1515 1516 1518 1520 1521 1523 1524 1525 1526 1527 1528 1528 1529 1529 1529 1529 1529 1529 1529 1529 1530 1530 1530 1531 1531 1532 1532 1533 1533 1533
1520 1518 1519 1519 1520 1521 1519 1519 1520 1526 1526 1525 1526 1524 1515 1517 1519 1520 1521 1522 1523 1524 1525 1526 1526 1527 1527 1528 1528 1528 1528 1528 1528 1528 1528 1528 1528 1529 1529 1530 1530 1531 1531 1531
1522 1520 1522 1522 1524 1522 1520 1520 1520 1520 1521 1522 1526 1522 1515 1517 1519 1520 1521 1521 1522 1523 1524 1524 1525 1525 1526 1526 1526 1526 1526 1526 1526 1526 1526 1527 1527 1527 1528 1528 1528 1528 1528 1529
1524 1517 1519 1523 1517 1516 1519 1520 1520 1520 1521 1519 1518 1516 1514 1516 1517 1519 1520 1521 1521 1522 1522 1523 1523 1524 1524 1524 1524 1525 1525 1524 1524 1524 1525 1525 1525 1525 1526 1526 1526 1525 1526 1526
1522 1518 1516 1515 1515 1517 1517 1518 1518 1518 1516 1517 1513 1514 1512 1514 1516 1518 1519 1519 1520 1520 1521 1521 1522 1522 1522 1522 1522 1522 1522 1522 1522 1523 1523 1523 1523 1523 1523 1523 1523 1523 1523 1523
1520 1518 1517 1517 1516 1517 1518 1516 1516 1516 1515 1514 1513 1513 1512 1514 1516 1516 1517 1518 1518 1519 1519 1519 1520 1520 1520 1520 1520 1520 1520 1520 1520 1520 1520 1520 1520 1520 1520 1521 1521 1521 1520 1521
1518 1517 1519 1516 1514 1516 1515 1510 1511 1512 1511 1511 1512 1510 1511 1513 1514 1515 1516 1516 1516 1517 1517 1517 1517 1517 1517 1518 1518 1518 1518 1518 1517 1518 1517 1517 1517 1517 1517 1518 1518 1518 1518 1518
1517 1516 1517 1517 1517 1521 1508 1507 1508 1509 1509 1509 1509 1510 1511 1512 1514 1514 1515 1515 1515 1515 1515 1515 1516 1515 1516 1516 1516 1516 1516 1516 1515 1515 1515 1514 1514 1515 1515 1515 1515 1515 1515 1515
1517 1516 1517 1517 1516 1510 1507 1506 1507 1508 1507 1508 1508 1510 1511 1512 1512 1512 1513 1513 1514 1514 1513 1513 1514 1514 1513 1513 1513 1513 1513 1513 1513 1512 1512 1512 1512 1512 1512 1513 1513 1513 1513 1513
1516 1515 1515 1516 1518 1513 1504 1504 1506 1508 1506 1506 1508 1509 1510 1511 1509 1509 1512 1512 1511 1511 1511 1511 1511 1511 1511 1511 1511 1511 1511 1510 1510 1510 1510 1510 1510 1510 1510 1510 1510 1510 1510 1510
1513 1515 1514 1513 1512 1504 1503 1505 1507 1510 1505 1506 1507 1508 1509 1509 1509 1510 1510 1510 1510 1509 1509 1508 1508 1508 1508 1508 1508 1508 1508 1507 1507 1507 1507 1507 1507 1508 1508 1508 1508 1507 1507 1507
1506 1509 1509 1509 1511 1507 1504 1505 1505 1504 1505 1506 1506 1507 1508 1508 1508 1508 1508 1508 1508 1507 1507 1506 1506 1506 1505 1505 1505 1505 1505 1505 1505 1505 1505 1505 1505 1505 1506 1505 1505 1505 1505 1504
1504 1503 1502 1503 1503 1502 1503 1503 1504 1504 1505 1505 1505 1506 1506 1506 1506 1506 1506 1506 1505 1505 1504 1504 1503 1503 1503 1502 1502 1502 1502 1502 1502 1502 1502 1502 1502 1503 1503 1503 1503 1502 1502 1502
1502 1504 1503 1501 1500 1501 1502 1502 1502 1503 1503 1504 1504 1504 1504 1504 1504 1504 1504 1503 1503 1503 1502 1501 1500 1500 1500 1500 1499 1499 1499 1499 1499 1499 1500 1500 1500 1500 1500 1500 1500 1500 1499 1498
1499 1501 1500 1498 1497 1499 1499 1500 1500 1500 1500 1500 1501 1501 1501 1501 1501 1502 1501 1501 1500 1500 1499 1498 1498 1497 1496 1497 1497 1497 1497 1497 1497 1497 1497 1498 1497 1497 1497 1497 1496 1496 1496 1495
1497 1497 1496 1492 1493 1495 1495 1496 1497 1497 1497 1497 1497 1498 1498 1499 1498 1498 1498 1498 1497 1496 1496 1495 1495 1494 1494 1494 1494 1494 1494 1494 1495 1495 1494 1494 1494 1494 1493 1493 1493 1492 1491 1490